Stations météo

réclame
Mon MeteoGroup
Waldmünchen, Allemagne (10782): Température de l'air & dewpoint: 02.07.2020 03:00:00 - 08.07.2020 03:00:00 (CEST)Waldmünchen, Allemagne (10782): Température de l'air 5cm & Température de l'air -5cm: 02.07.2020 03:00:00 - 08.07.2020 03:00:00 (CEST)Waldmünchen, Allemagne (10782): Température de l'air -20cm & Température de l'air -100cm: 02.07.2020 03:00:00 - 08.07.2020 03:00:00 (CEST)Waldmünchen, Allemagne (10782): Vitesse du vent & gusts: 02.07.2020 03:00:00 - 08.07.2020 03:00:00 (CEST)Waldmünchen, Allemagne (10782): Direction du vent: 02.07.2020 03:00:00 - 08.07.2020 03:00:00 (CEST)Waldmünchen, Allemagne (10782): reduced air pressure: 02.07.2020 03:00:00 - 08.07.2020 03:00:00 (CEST)Waldmünchen, Allemagne (10782): visibility: 02.07.2020 03:00:00 - 08.07.2020 03:00:00 (CEST)Waldmünchen, Allemagne (10782): Ensoleillement: 02.07.2020 03:00:00 - 08.07.2020 03:00:00 (CEST)Waldmünchen, Allemagne (10782): Quantités de précipitations: 02.07.2020 03:00:00 - 08.07.2020 03:00:00 (CEST)
Date & Time tt [°C] td [°C] tt 5cm [°C] tt -5cm [°C] tt -20cm [°C] tt -100cm [°C] ff [km/h] ff [knt] fx [km/h] fx [knt] dd ppp [hPa] vv [km] sd [min] rr [mm]
08.07.2020 03:00:00 8,7 7,8 8,5 13,2 18,2 15,8 4 2 6 4 ENE 1019,3 54 0 0,0
08.07.2020 02:00:00 8,5 7,0 7,2 13,4 18,6 15,8 4 2 7 4 NE 1019,3 59 0 0,0
08.07.2020 01:00:00 9,2 7,5 7,2 14,1 19,0 15,8 4 2 10 6 NNE 1019,4 74 0 0,0
08.07.2020 00:00:00 10,3 7,7 8,5 15,2 19,4 15,8 6 3 7 4 NNE 1019,4 68 0 0,0
07.07.2020 23:00:00 11,6 9,1 10,9 16,3 19,7 15,8 4 2 8 5 E 1019,2 72 0 0,0
07.07.2020 22:00:00 12,6 7,8 10,3 17,3 20,0 15,8 5 3 7 4 NE 1018,8 75 0 0,0
07.07.2020 21:00:00 14,3 8,7 13,0 19,2 20,1 15,8 3 2 8 4 NNE 1018,1 75 14 0,0
07.07.2020 20:00:00 16,7 7,8 16,5 20,8 20,1 15,8 5 3 18 10 WSW 1017,6 52 18 0,0
07.07.2020 19:00:00 17,3 6,1 17,3 22,3 19,9 15,8 11 6 21 12 W 1017,8 61 12 0,0
07.07.2020 18:00:00 18,2 5,2 19,0 24,0 19,6 15,8 14 7 22 12 SW 1017,8 73 32 0,0
07.07.2020 17:00:00 18,8 6,2 21,2 24,5 19,1 15,8 13 7 25 13 SW 1018,2 75 35 0,0
07.07.2020 16:00:00 18,8 5,5 23,0 25,7 18,4 15,8 15 8 24 13 WSW 1018,7 75 42 0,0
07.07.2020 15:00:00 18,7 6,4 23,2 26,0 17,8 15,8 16 8 26 14 SSW 1019,1 52 50 0,0
07.07.2020 14:00:00 16,8 7,2 19,6 24,8 17,3 15,8 14 7 28 15 SW 1020,0 56 41 0,0
07.07.2020 13:00:00 15,4 5,9 17,8 20,5 17,1 15,8 11 6 23 12 W 1020,5 75 0 0,0
07.07.2020 12:00:00 14,6 6,3 16,6 20,8 16,8 15,8 9 5 20 11 SSW 1021,0 75 5 0,0
07.07.2020 11:00:00 14,6 7,0 17,1 20,3 16,4 15,8 12 6 22 12 SW 1021,0 75 17 0,0
07.07.2020 10:00:00 12,8 6,1 14,2 21,6 16,1 15,8 13 7 22 12 WSW 1021,4 48 49 0,0
07.07.2020 09:00:00 12,7 7,2 15,7 19,2 16,0 15,8 8 5 16 9 SW 1021,5 51 60 0,0
07.07.2020 08:00:00 10,6 6,9 12,2 16,2 16,1 15,8 5 3 8 4 SSW 1022,1 73 60 0,0
07.07.2020 07:00:00 8,6 6,0 8,3 12,7 16,4 15,8 0 0 6 4 N 1022,8 75 60 0,0
07.07.2020 06:00:00 6,0 5,0 5,1 10,3 16,8 15,8 2 1 7 4 ENE 1023,1 41 5 0,0
07.07.2020 05:00:00 6,7 5,9 4,4 10,4 17,2 15,8 3 2 7 4 SE 1022,6 46 0 0,0
07.07.2020 04:00:00 7,1 5,9 5,2 10,9 17,6 15,8 5 3 9 5 E 1022,3 53 0 0,0
07.07.2020 03:00:00 7,8 5,8 5,4 11,6 18,1 15,8 4 2 8 5 NNE 1022,0 56 0 0,0
07.07.2020 02:00:00 8,5 5,9 6,2 12,3 18,5 15,8 6 3 9 5 NE 1021,7 59 0 0,0
07.07.2020 01:00:00 9,6 6,3 6,7 13,1 19,0 15,8 5 3 10 6 E 1021,2 62 0 0,0
07.07.2020 00:00:00 11,3 5,5 7,8 14,1 19,4 15,8 5 3 13 7 W 1020,5 72 0 0,0
06.07.2020 23:00:00 12,7 5,7 10,3 15,1 19,8 15,8 7 4 44 24 WNW 1019,7 63 0 0,0
06.07.2020 22:00:00 14,4 4,9 12,8 16,2 20,2 15,8 17 9 32 17 WNW 1018,6 68 0 0,0
06.07.2020 21:00:00 14,8 5,6 13,2 17,9 20,4 15,8 16 9 35 19 W 1017,0 56 44 0,0
06.07.2020 20:00:00 17,0 5,0 16,7 19,4 20,5 15,8 20 11 48 26 W 1016,0 67 38 0,0
06.07.2020 19:00:00 18,0 5,1 18,8 21,0 20,4 15,8 33 18 52 28 W 1015,1 60 38 0,0
06.07.2020 18:00:00 17,8 6,0 17,7 22,6 20,2 15,8 29 16 53 29 W 1014,5 61 49 0,0
06.07.2020 17:00:00 20,2 5,8 22,4 23,4 19,8 15,8 31 17 51 28 WSW 1013,2 62 55 0,0
06.07.2020 16:00:00 20,9 7,6 24,3 24,0 19,4 15,8 24 13 47 26 W 1012,6 71 58 0,0
06.07.2020 15:00:00 20,7 7,1 23,6 24,0 19,0 15,8 29 16 49 26 W 1012,5 74 60 0,0
06.07.2020 14:00:00 20,1 6,4 22,3 22,7 18,7 15,8 35 19 52 28 SW 1012,6 64 60 0,0
06.07.2020 13:00:00 18,2 8,2 19,9 21,6 18,5 15,7 29 16 44 24 WSW 1012,7 63 38 0,0
06.07.2020 12:00:00 16,2 14,2 17,9 18,5 18,6 15,7 14 8 25 13 SSW 1013,3 64 2 0,1
06.07.2020 11:00:00 15,4 13,6 15,3 18,1 18,6 15,7 11 6 48 26 SW 1013,3 64 0 1,7
06.07.2020 10:00:00 16,2 15,0 16,3 18,3 18,6 15,7 13 7 23 12 SSW 1012,8 49 0 0,2
06.07.2020 09:00:00 15,8 14,1 15,3 17,7 18,7 15,7 24 13 35 19 W 1013,0 7 0 0,1
06.07.2020 08:00:00 18,8 14,8 18,8 18,2 18,8 15,7 19 11 30 16 SW 1011,4 70 1 0,0
06.07.2020 07:00:00 18,9 14,7 18,3 17,6 18,9 15,7 10 5 28 15 SW 1011,0 75 6 0,0
06.07.2020 06:00:00 19,1 14,2 18,0 17,2 19,1 15,7 16 9 30 16 SW 1011,5 75 0 0,0
06.07.2020 05:00:00 18,6 14,2 16,7 17,2 19,2 15,7 4 2 14 8 S 1011,8 75 0 0,0
06.07.2020 04:00:00 18,9 14,5 16,8 17,6 19,4 15,7 5 3 11 6 WSW 1012,4 75 0 0,0
06.07.2020 03:00:00 18,6 14,9 17,2 17,5 19,7 15,7 5 3 12 6 SW 1012,9 73 0 0,0
06.07.2020 02:00:00 15,5 14,9 15,0 17,1 20,0 15,7 5 3 7 4 NE 1013,8 40 0 0,0
06.07.2020 01:00:00 16,4 15,2 14,0 17,4 20,3 15,7 3 2 6 3 NNE 1013,7 65 0 0,0
06.07.2020 00:00:00 17,0 15,3 14,7 18,2 20,6 15,7 3 2 6 3 N 1013,8 69 0 0,0
05.07.2020 23:00:00 18,0 15,5 15,7 19,1 20,8 15,7 0 0 9 5 N 1013,7 75 0 0,0
05.07.2020 22:00:00 20,3 15,7 17,1 20,3 21,0 15,7 6 3 12 7 SW 1013,4 72 0 0,0
05.07.2020 21:00:00 21,6 15,9 20,4 21,6 21,0 15,7 9 5 27 15 SSW 1012,7 75 50 0,0
05.07.2020 20:00:00 24,0 15,5 24,3 23,1 21,0 15,7 16 9 28 15 SW 1012,3 49 32 0,0
05.07.2020 19:00:00 23,4 15,7 23,1 23,6 20,8 15,7 18 10 29 16 SSW 1012,9 75 14 0,0
05.07.2020 18:00:00 23,5 15,3 23,9 24,4 20,6 15,7 21 11 34 18 SSW 1013,3 56 17 0,0
05.07.2020 17:00:00 24,1 15,3 25,8 24,4 20,4 15,7 19 10 37 20 SSW 1013,6 75 9 0,0
05.07.2020 16:00:00 23,3 14,8 23,9 25,0 20,1 15,7 22 12 38 20 SSW 1014,2 75 9 0,0
05.07.2020 15:00:00 23,0 15,0 23,7 24,5 19,8 15,7 22 12 40 22 SW 1014,5 75 0 0,0
05.07.2020 14:00:00 22,6 14,9 23,5 24,7 19,3 15,7 19 10 39 21 SSW 1014,9 75 7 0,0
05.07.2020 13:00:00 22,5 14,1 24,3 27,4 18,8 15,7 25 14 39 21 SW 1015,3 61 50 0,0
05.07.2020 12:00:00 22,9 14,2 26,2 24,0 18,4 15,7 22 12 37 20 SW 1015,5 75 26 0,0
05.07.2020 11:00:00 21,4 12,7 23,2 22,1 18,2 15,7 24 13 40 22 SW 1016,2 75 15 0,0
05.07.2020 10:00:00 19,9 12,1 20,6 20,2 18,1 15,7 24 13 35 19 SSW 1016,7 64 0 0,0
05.07.2020 09:00:00 19,2 11,9 19,7 18,9 18,0 15,7 23 12 33 18 SSW 1016,7 48 8 0,0
05.07.2020 08:00:00 18,8 12,3 19,8 17,8 18,0 15,7 16 9 24 13 SW 1016,8 67 12 0,0
05.07.2020 07:00:00 17,1 12,0 16,8 16,5 18,2 15,7 5 3 9 5 WSW 1017,3 55 0 0,0
05.07.2020 06:00:00 15,8 12,0 15,2 15,8 18,4 15,7 3 1 6 3 W 1017,4 54 0 0,0
05.07.2020 05:00:00 13,9 11,8 13,6 15,2 18,7 15,7 2 1 6 3 N 1017,9 50 0 0,0
05.07.2020 04:00:00 13,5 11,2 12,3 15,1 19,0 15,7 5 3 6 4 NNE 1018,1 59 0 0,0
05.07.2020 03:00:00 14,2 11,6 11,5 15,7 19,3 15,7 3 2 6 3 NNE 1018,0 67 0 0,0
05.07.2020 02:00:00 14,8 11,9 13,7 16,2 19,7 15,7 4 2 9 5 NNE 1018,2 62 0 0,0
05.07.2020 01:00:00 14,3 11,4 12,1 16,4 20,1 15,7 4 2 6 4 NNE 1018,3 70 0 0,0
05.07.2020 00:00:00 15,6 11,6 13,5 17,2 20,4 15,7 5 3 8 4 NNE 1017,9 65 0 0,0
04.07.2020 23:00:00 16,5 11,4 14,0 18,2 20,7 15,7 2 1 8 4 E 1017,5 66 0 0,0
04.07.2020 22:00:00 17,0 11,7 15,0 19,4 20,9 15,7 3 2 11 6 ESE 1017,4 65 0 0,0
04.07.2020 21:00:00 19,8 11,5 18,1 20,8 21,1 15,7 9 5 26 14 SW 1016,7 63 41 0,0
04.07.2020 20:00:00 21,8 11,2 21,6 22,3 21,0 15,7 16 9 32 17 SW 1015,9 69 59 0,0
04.07.2020 19:00:00 22,8 10,5 23,4 23,6 20,8 15,7 19 11 32 17 SSW 1016,0 75 60 0,0
04.07.2020 18:00:00 23,0 10,1 24,0 24,8 20,5 15,7 23 12 43 23 SW 1016,3 75 56 0,0
04.07.2020 17:00:00 22,2 9,9 22,4 25,6 20,0 15,7 24 13 37 20 SSW 1016,6 71 47 0,0
04.07.2020 16:00:00 23,5 10,2 26,4 26,5 19,5 15,7 24 13 36 19 SW 1016,7 75 55 0,0
04.07.2020 15:00:00 23,0 11,4 26,5 26,1 18,9 15,7 23 12 36 20 WSW 1017,2 75 46 0,0
04.07.2020 14:00:00 21,1 9,6 22,5 25,5 18,5 15,7 20 11 34 19 SW 1018,0 75 39 0,0
04.07.2020 13:00:00 21,0 10,0 23,6 24,2 18,0 15,7 21 11 32 17 SW 1018,5 75 31 0,0
04.07.2020 12:00:00 20,5 8,8 23,3 24,4 17,5 15,7 19 11 31 17 SW 1018,9 49 47 0,0
04.07.2020 11:00:00 20,4 9,5 22,8 23,5 17,0 15,7 18 10 30 16 SSW 1019,1 56 60 0,0
04.07.2020 10:00:00 18,5 10,8 20,7 22,5 16,7 15,7 7 4 17 9 SW 1019,8 75 60 0,0
04.07.2020 09:00:00 16,3 10,6 19,4 21,2 16,5 15,7 4 2 7 4 WNW 1020,1 55 60 0,0
04.07.2020 08:00:00 14,3 10,8 14,4 17,5 16,6 15,7 0 0 4 2 N 1020,3 36 60 0,0
04.07.2020 07:00:00 10,8 8,4 10,3 13,9 16,8 15,7 0 0 4 2 N 1021,0 52 60 0,0
04.07.2020 06:00:00 8,4 8,0 7,9 11,5 17,2 15,7 0 0 5 3 N 1021,4 36 9 0,0
04.07.2020 05:00:00 8,0 7,5 6,9 11,7 17,6 15,7 3 1 5 3 ENE 1021,3 28 0 0,0
04.07.2020 04:00:00 8,6 8,3 7,3 12,2 18,0 15,7 0 0 5 3 N 1021,2 35 0 0,0
04.07.2020 03:00:00 9,2 8,7 7,9 12,8 18,4 15,7 2 1 5 3 NE 1021,3 43 0 0,0
04.07.2020 02:00:00 9,3 8,7 8,3 13,4 18,8 15,7 3 1 7 4 NE 1021,4 37 0 0,0
04.07.2020 01:00:00 10,4 9,4 8,7 14,1 19,2 15,6 2 1 9 5 NNE 1020,9 53 0 0,0
04.07.2020 00:00:00 11,0 9,7 9,4 14,9 19,7 15,6 5 3 8 4 ENE 1020,8 60 0 0,0
03.07.2020 23:00:00 11,9 10,0 10,2 15,8 20,0 15,6 6 3 11 6 ENE 1020,3 65 0 0,0
03.07.2020 22:00:00 13,9 9,4 11,2 17,0 20,3 15,6 5 3 9 5 NE 1019,5 75 0 0,0
03.07.2020 21:00:00 16,4 9,4 14,1 18,7 20,5 15,6 4 2 19 10 NW 1018,2 75 48 0,0
03.07.2020 20:00:00 20,0 8,8 19,8 19,9 20,6 15,6 10 6 22 12 W 1017,2 75 56 0,0
03.07.2020 19:00:00 19,9 8,5 20,6 21,1 20,6 15,6 11 6 25 14 W 1017,0 65 30 0,0
03.07.2020 18:00:00 19,4 8,7 19,4 22,2 20,4 15,6 16 9 29 16 W 1017,1 75 36 0,0
03.07.2020 17:00:00 19,8 8,7 20,7 23,5 20,1 15,6 13 7 34 18 WNW 1016,9 62 45 0,0
03.07.2020 16:00:00 20,7 10,1 24,0 24,0 19,8 15,6 20 11 32 17 W 1016,9 65 57 0,0
03.07.2020 15:00:00 20,9 10,6 24,8 22,9 19,5 15,6 17 9 32 17 WSW 1016,7 60 39 0,0
03.07.2020 14:00:00 19,0 9,4 20,8 23,0 19,2 15,6 19 10 34 18 WSW 1017,4 75 24 0,0
03.07.2020 13:00:00 18,5 9,3 19,2 22,8 18,9 15,6 21 11 36 20 W 1017,4 75 37 0,0
03.07.2020 12:00:00 18,9 9,8 22,0 23,5 18,6 15,6 19 10 35 19 W 1017,4 66 55 0,0
03.07.2020 11:00:00 17,4 10,0 18,8 22,1 18,3 15,6 19 10 31 17 W 1017,6 72 43 0,0
03.07.2020 10:00:00 16,6 11,3 18,1 20,7 18,2 15,6 18 10 29 16 W 1017,7 54 48 0,0
03.07.2020 09:00:00 15,6 11,2 18,2 19,4 18,2 15,6 16 9 25 14 WSW 1017,5 62 38 0,0
03.07.2020 08:00:00 14,3 11,5 14,2 17,0 18,3 15,5 16 9 25 14 W 1017,3 55 29 0,0
03.07.2020 07:00:00 12,9 11,9 12,3 15,1 18,6 15,5 8 4 13 7 SW 1017,1 50 0 0,0
03.07.2020 06:00:00 12,9 12,5 12,0 15,1 18,9 15,5 2 1 7 4 W 1016,5 35 0 0,0
03.07.2020 05:00:00 13,2 12,5 12,0 15,3 19,2 15,5 3 1 7 4 ENE 1015,8 36 0 0,0
03.07.2020 04:00:00 13,4 12,5 12,3 16,0 19,5 15,5 2 1 6 4 NNW 1015,2 33 0 0,0
03.07.2020 03:00:00 14,6 13,1 13,2 16,8 19,8 15,5 4 2 14 8 SW 1014,9 43 0 0,0
03.07.2020 02:00:00 16,0 14,2 14,9 17,5 20,0 15,5 9 5 14 7 SW 1014,0 61 0 0,0
03.07.2020 01:00:00 16,2 14,8 15,1 17,9 20,3 15,5 5 3 17 9 SW 1013,8 34 0 0,0
03.07.2020 00:00:00 16,7 15,4 15,9 18,5 20,5 15,5 10 6 18 10 SW 1013,4 43 0 0,0
02.07.2020 23:00:00 17,4 16,2 16,7 19,1 20,7 15,5 5 3 9 5 WSW 1013,2 40 0 0,0
02.07.2020 22:00:00 17,3 15,6 16,4 19,6 20,9 15,5 2 1 14 7 ENE 1012,9 52 0 0,0
02.07.2020 21:00:00 18,1 16,2 17,4 20,6 21,0 15,5 13 7 18 10 SW 1012,3 65 0 0,7
02.07.2020 20:00:00 19,5 16,2 18,9 21,4 21,0 15,5 8 4 18 10 SSW 1011,4 70 31 0,0
02.07.2020 19:00:00 21,0 16,1 21,7 22,2 20,9 15,5 11 6 18 10 S 1011,2 75 32 0,0
02.07.2020 18:00:00 20,8 14,9 20,9 22,9 20,6 15,4 11 6 20 11 SW 1011,2 72 30 0,0
02.07.2020 17:00:00 21,2 16,8 24,0 23,6 20,5 15,4 10 5 18 10 SSW 1011,2 69 51 0,0
02.07.2020 16:00:00 19,0 16,5 21,0 21,8 20,5 15,4 10 5 16 8 SE 1012,1 40 2 0,0
02.07.2020 15:00:00 17,7 16,7 18,2 20,1 20,6 15,4 9 5 14 7 SE 1012,7 39 0 2,5
02.07.2020 14:00:00 17,3 15,8 16,7 20,5 20,6 15,4 2 1 30 16 SE 1012,9 8 0 3,0
02.07.2020 13:00:00 20,4 14,9 20,2 22,9 20,4 15,4 15 8 29 16 SW 1011,4 69 13 0,0
02.07.2020 12:00:00 22,7 15,4 26,2 26,1 20,1 15,4 14 8 24 13 SSW 1010,9 75 56 0,0
02.07.2020 11:00:00 20,4 16,0 21,0 22,6 19,8 15,4 14 7 22 12 SW 1011,4 63 22 0,0
02.07.2020 10:00:00 20,3 16,7 22,3 24,0 19,7 15,4 13 7 22 12 S 1011,3 66 48 0,0
02.07.2020 09:00:00 18,6 16,9 20,7 20,2 19,7 15,4 7 4 12 6 S 1011,7 55 8 0,0
02.07.2020 08:00:00 18,1 15,2 18,5 20,4 19,8 15,4 2 1 7 4 NE 1011,5 63 29 0,0
02.07.2020 07:00:00 16,3 14,5 17,2 18,4 20,1 15,4 3 1 6 3 S 1011,5 40 45 0,0
02.07.2020 06:00:00 15,3 14,6 14,8 17,2 20,4 15,4 6 3 11 6 ESE 1011,6 58 2 0,0
02.07.2020 05:00:00 15,5 15,0 15,1 17,7 20,7 15,4 5 3 9 5 E 1011,6 34 0 0,8
02.07.2020 04:00:00 15,9 15,5 15,7 18,2 21,0 15,4 13 7 21 12 W 1011,5 35 0 0,0
02.07.2020 03:00:00 16,5 15,6 16,0 18,7 21,4 15,4 6 3 13 7 SE 1010,9 42 0 2,1

tt = Température de l'air
td = dewpoint
tt 5cm = Température de l'air 5cm
tt -5cm = Température de l'air -5cm
tt -20cm = Température de l'air -20cm
tt -100cm = Température de l'air -100cm
ff = Vitesse du vent
fx = gusts
dd = Direction du vent
ppp = reduced air pressure
vv = visibility
sd = Ensoleillement
rr = Quantités de précipitations

stations d'obs. à proximité